Lyra 4

operational
NORAD ID: 64691 Int'l Des: 2025-140 Owner: ECHOAU Country: AU
LEOCIRCULARRETROGRADE

Über Lyra 4

Beschreibung wird geladen...

Live-Position

3D-Globus wird geladen...

Nächste Überflüge

Höhenverlauf

Altitude vs Time

uPlot chart will show altitude changes over time

Zweizeiliger Elementsatz

1 64691U 25140A 25341.20823262 .00002587 00000-0 41748-3 0 9997
2 64691 95.9786 146.9360 0014153 124.1294 236.1264 14.71867312 23816
Epoch: 7. Dez. 2025 • Age: 22 hours

Aktueller Status

Höhe 667.5 km
Geschwindigkeit 7.52 km/s
Subsatellitenpunkt -32.26°S, 160.81°W
Startdatum 28. Juni 2025
Alter 0.4 years
Typ other

Technische Details

Klassifizierung Payload
Masse 74.00 kg
Trockenmasse 74.00 kg
Gesamtmasse 74.00 kg
Länge 0.60 m
Durchmesser 0.50 m
Spannweite 2.00 m
Form Box
Hersteller ADIG
Bus-Typ Corvus XL
Phasenstatus In Orbit
Besitzer/Staat ECHOAU/AU

Große Konstellationen

Loading constellations...